#timestamp,LO_Frequency,Hit,StdDev 
1569927615.8,286047004.5,N
1569927635.6,286047001.7,N
1569927655.5,286047000.0,N
1569927675.3,286047001.1,N
1569927695.2,286046998.1,N
1569927715.9,286047000.9,N
1569927735.7,286047000.9,N
1569927755.6,286047002.7,N
1569927775.4,286047000.3,N
1569927795.3,286046999.2,N
1569927815.1,286046996.5,N
1569927816.0,286046996.5,N
1569927835.8,286046998.5,N
1569927855.7,286046997.2,N
1569927875.5,286046998.2,N
1569927895.3,286047000.3,N
1569927915.2,286047001.4,N
1569927935.0,286047004.3,N
1569927935.9,286047004.3,N
1569927955.8,286047002.0,N
1569927975.6,286047003.6,N
1569927995.4,286047000.2,N
1569928015.3,286047001.1,N
1569928035.1,286046997.2,N
1569928055.8,286046999.3,N
1569928075.7,286046999.4,N
1569928095.5,286046997.4,N
1569928115.4,286046998.7,N
1569928135.2,286046999.1,N
1569928155.0,286046999.6,N
1569928155.9,286046999.6,N
1569928175.8,286047000.8,N
1569928195.6,286047002.3,N
1569928215.5,286046999.8,N
1569928235.3,286046999.8,N
1569928255.1,286047002.4,N
1569928275.9,286046999.7,N
1569928295.7,286046999.8,N
1569928315.5,286047001.9,N
1569928335.4,286047002.2,N
1569928355.2,286047001.6,N
1569928375.1,286046999.9,N
1569928376.0,286046999.9,N
1569928395.8,286047000.5,N
1569928415.6,286046999.3,N
1569928435.5,286046998.4,N
1569928455.3,286047001.0,N
1569928475.1,286046998.4,N
1569928495.9,286046993.7,Y
1569928515.7,286046994.1,P
1569928535.6,286046996.2,N
1569928555.4,286046995.4,N
1569928575.2,286046997.9,N
1569928595.1,286046999.5,N
1569928596.0,286046999.5,N
1569928615.8,286046999.6,N
1569928635.6,286046996.9,N
1569928655.5,286046995.1,N
1569928675.3,286046995.5,N
1569928695.2,286046997.7,N
1569928715.9,286046998.3,N
1569928735.7,286046998.5,N
1569928755.6,286047001.1,N
1569928775.4,286046999.4,N
1569928795.2,286047000.8,N
1569928815.1,286047005.8,N
1569928816.0,286047005.8,N
1569928835.8,286047006.4,N
1569928855.7,286047004.7,N
1569928875.5,286047004.2,N
1569928895.3,286047001.6,N
1569928915.2,286047004.4,N
1569928935.0,286047001.8,N
1569928935.9,286047001.8,N
1569928955.8,286047004.1,N
1569928975.6,286047006.0,N
1569928995.4,286047003.6,N
1569929015.3,286047003.6,N
1569929035.1,286047001.4,N
1569929055.8,286047001.8,N
1569929075.7,286046999.7,N
1569929095.5,286047000.4,N
1569929115.4,286047002.0,N
1569929135.2,286047001.5,N
1569929155.0,286047002.4,N
1569929155.9,286047002.4,N
1569929175.8,286047001.0,N
1569929195.6,286047000.7,N
1569929215.4,286047000.0,N
1569929235.3,286047002.8,N
1569929255.1,286047001.9,N
1569929275.9,286047002.5,N
1569929295.7,286047002.0,N
1569929315.5,286047001.8,N
1569929335.4,286047000.0,N
1569929355.2,286047001.5,N
1569929375.0,286047005.7,Y
1569929375.9,286047005.7,P
1569929395.8,286047003.7,N
1569929415.6,286047001.3,N
1569929435.5,286047003.6,N
1569929455.3,286047004.4,N
1569929475.1,286047002.1,N
1569929495.9,286046996.5,N
1569929515.7,286046996.1,N
1569929535.5,286046993.3,N
1569929555.4,286046995.6,N
1569929575.2,286046996.1,N
1569929595.1,286046994.1,N
1569929596.0,286046994.1,N
1569929615.8,286046994.0,N
1569929635.6,286046995.4,N
1569929655.5,286046997.1,N
1569929675.3,286046997.2,N
1569929695.1,286046997.9,N
1569929715.9,286046997.2,N
1569929735.7,286046999.2,N
1569929755.6,286046998.9,N
1569929775.4,286046998.8,N
1569929795.2,286046997.8,N
1569929815.1,286046991.9,N
1569929816.0,286046991.9,N
1569929835.8,286046992.8,N
1569929855.7,286046993.2,N
1569929875.5,286046994.3,N
1569929895.3,286046994.3,N
1569929915.2,286046994.4,N
1569929935.0,286046994.4,N
1569929935.9,286046994.4,N
1569929955.8,286046996.0,N
1569929975.6,286046997.4,N
1569929995.4,286046995.2,N
1569930015.3,286046995.7,N
1569930035.1,286046995.0,N
1569930055.8,286046998.0,N
1569930075.7,286046998.0,N
1569930095.5,286046997.8,N
1569930115.4,286046997.1,N
1569930135.2,286046996.7,N
1569930155.0,286046998.0,N
1569930155.9,286046998.0,N
1569930175.8,286046995.0,N
1569930195.6,286046995.8,N
1569930215.4,286046994.7,N
1569930235.3,286046993.2,Y
1569930255.1,286046995.5,P
1569930275.9,286046995.8,P
1569930295.7,286046995.0,P
1569930315.5,286046995.2,Y
1569930335.4,286047001.0,P
1569930355.2,286047000.6,N
1569930375.0,286047000.7,N
1569930376.0,286047000.7,N
1569930395.8,286046999.9,N
1569930415.6,286047000.0,N
1569930435.5,286047003.9,N
1569930455.3,286047004.2,N
1569930475.1,286047003.0,N
1569930495.9,286047005.7,N
1569930515.7,286047007.2,N
1569930535.5,286047006.5,N
1569930555.4,286047008.8,N
1569930575.2,286047008.1,N
1569930595.1,286047009.0,N
1569930596.0,286047009.0,N
1569930615.8,286047008.0,N
1569930635.6,286047008.4,N
1569930655.5,286047006.6,N
1569930675.3,286047008.4,N
1569930695.1,286047006.2,N
1569930715.9,286047006.5,N
1569930735.7,286047008.2,N
1569930755.6,286047006.2,N
1569930775.4,286047005.1,N
1569930795.2,286047005.7,N
1569930815.1,286047006.4,N
1569930816.0,286047006.4,N
1569930835.8,286047003.4,N
1569930855.7,286047000.1,N
1569930875.5,286047004.4,N
1569930895.3,286047002.6,N
1569930915.2,286046999.7,N
1569930935.0,286046999.9,N
1569930965.9,286047001.1,E
1569930975.9,286046998.5,N
1569930995.7,286047005.4,P
1569931015.5,286047005.2,N
1569931035.4,286047002.9,N
1569931055.2,286047001.8,N
1569931075.0,286047000.1,N
1569931076.0,286047000.1,N
1569931095.8,286046999.9,N
1569931115.6,286046998.8,N
1569931135.5,286046998.3,N
1569931155.3,286046999.2,N
1569931175.1,286047001.1,N
1569931195.9,286047002.2,N
